Regional Weather Roundup
Issued by NWS Huntsville, AL

Home | Current Version | Previous Version | Text Only | Print | Product List | Glossary On
Versions: 1 2 3 4 5 6 7 8 9 10 11 12 13 14 15 16 17 18 19 20 21 22 23 24 25 26 27 28 29 30 31 32 33 34 35 36 37 38 39 40 41 42 43 44 45 46 47 48 49 50
000
ASUS44 KHUN 261510
RWRHUN

WEATHER ROUNDUP FOR THE TENNESSEE VALLEY
NATIONAL WEATHER SERVICE HUNTSVILLE AL
1000 AM CDT SUN MAY 26 2019

ALZ001>004-261600-
NORTHWEST ALABAMA

CITY           SKY/WX    TMP DP  RH WIND       PRES   REMARKS
SHOALS AIRPORT FAIR      91  65  41 W12       30.17F HX  93
$$

ALZ005>007-016-261600-
NORTH CENTRAL ALABAMA

CITY           SKY/WX    TMP DP  RH WIND       PRES   REMARKS
CULLMAN AG STN   N/A     84 N/A N/A CALM        N/A
DECATUR AP     FAIR      85  67  54 W6        30.19S
HUNTSVILLE AP  FAIR      88  66  48 W9        30.18F HX  90
MERIDIANVILLE    N/A     86  65  50 W10       30.19S
VINEMONT AP    FAIR      85  65  50 SW5       30.23S
$$

ALZ008>010-261600-
NORTHEAST ALABAMA

CITY           SKY/WX    TMP DP  RH WIND       PRES   REMARKS
ALBERTVILLE    FAIR      86  63  45 W8        30.21S
FORT PAYNE     FAIR      85  67  54 W13       30.18F
SCOTTSBORO AP  FAIR      84  73  70 VRB3      30.19S HX  91
$$

TNZ076-096-097-261600-
SOUTHEASTERN MIDDLE TENNESSEE

CITY           SKY/WX    TMP DP  RH WIND       PRES   REMARKS
FAYETTEVILLE   SUNNY     84  66  54 W9G16     30.19R
TULLAHOMA      SUNNY     82  68  61 W10       30.18S
WINCHESTER     SUNNY     84  64  51 W9        30.19S
$$

...SURROUNDING SITES...

CITY           SKY/WX    TMP DP  RH WIND       PRES   REMARKS
ATLANTA        FAIR      88  65  46 W8        30.20S HX  90
ANNISTON       FAIR      86  69  56 VRB3      30.20S HX  90
BIRMINGHAM     FAIR      86  66  51 VRB3      30.21F
CHATTANOOGA    FAIR      87  67  51 W12       30.18F HX  90
CORINTH        FAIR      86  66  51 VRB6G13   30.14F
DALTON         FAIR      86  68  54 S3        30.20S
GADSDEN        FAIR      86  73  65 VRB5      30.20F HX  93
GOLDEN TRNGL   FAIR      84  70  62 VRB5      30.18S
HALEYVILLE     FAIR      85  68  56 SW8       30.22S
JACKSON TN     FAIR      84  70  62 SW10      30.13R
MEMPHIS        FAIR      85  71  63 SW8       30.12R HX  90
NASHVILLE      PTSUNNY   86  64  47 W7        30.15S
OXFORD MS      FAIR      82  68  61 VRB7      30.15F
ROME           FAIR      88  67  49 VRB3      30.17F HX  91
SAVANNAH       SUNNY     88  70  55 S13       30.13F HX  92
SELMER         SUNNY     84  68  58 SW9       30.14S
TUPELO         FAIR      86  65  49 SW8       30.15F
TUSCALOOSA     FAIR      89  68  49 W3        30.17F HX  93
$$




USA.gov is the U.S. government's official web portal to all federal, state and local government web resources and services.